• In India
  • List of Countries
  • For 7 days
  • Water Temperature
  • Satellite Maps
  • Weather Map
  • Weather Widgets
  • user-avatar
    Login

    Hourly Weather Popovo

    Today, 14 December, Friday

    Time Temperature Precipitation Wind Pressure Humidity
    00:00 0°C° 0 mm 1 mps 756 mmHg 86%
    01:00 0°C° 0 mm 1 mps 757 mmHg 86%
    02:00 0°C° 0 mm 1 mps 757 mmHg 86%
    03:00 0°C° 0 mm 1 mps 757 mmHg 85%
    04:00 0°C° 0 mm 1 mps 757 mmHg 85%
    05:00 0°C° 0 mm 1 mps 757 mmHg 84%
    06:00 0°C° 0 mm 1 mps 757 mmHg 84%
    07:00 0°C° 0 mm 1 mps 757 mmHg 84%
    08:00 +1°C° 0 mm 1 mps 757 mmHg 79%
    09:00 +1°C° 0 mm 1 mps 757 mmHg 74%
    10:00 +1°C° 0 mm 2 mps 757 mmHg 70%
    11:00 +2°C° 0 mm 2 mps 757 mmHg 67%
    12:00 +2°C° 0 mm 2 mps 757 mmHg 64%
    13:00 +3°C° 0 mm 2 mps 757 mmHg 62%
    14:00 +2°C° 0 mm 2 mps 757 mmHg 66%
    15:00 +1°C° 0 mm 2 mps 757 mmHg 70%
    16:00 -1°C° 0 mm 2 mps 757 mmHg 74%
    17:00 -1°C° 0 mm 2 mps 757 mmHg 75%
    18:00 -1°C° 0 mm 2 mps 757 mmHg 76%
    19:00 -1°C° 0 mm 2 mps 758 mmHg 76%
    20:00 -1°C° 0 mm 2 mps 758 mmHg 76%
    21:00 -1°C° 0 mm 3 mps 758 mmHg 76%
    22:00 -1°C° 0 mm 3 mps 758 mmHg 75%
    23:00 -1°C° 0 mm 3 mps 758 mmHg 75%

    Tomorrow, 15 December, Saturday

    Time Temperature Precipitation Wind Pressure Humidity
    00:00 -1°C° 0 mm 3 mps 758 mmHg 74%
    01:00 -1°C° 0 mm 3 mps 758 mmHg 73%
    02:00 -1°C° 0 mm 3 mps 757 mmHg 73%
    03:00 -1°C° 0 mm 3 mps 757 mmHg 72%
    04:00 -1°C° 0 mm 3 mps 757 mmHg 72%
    05:00 -2°C° 0 mm 3 mps 757 mmHg 71%
    06:00 -2°C° 0 mm 3 mps 757 mmHg 71%
    07:00 -2°C° 0 mm 3 mps 757 mmHg 71%
    08:00 -1°C° 0 mm 3 mps 757 mmHg 68%
    09:00 -1°C° 0 mm 3 mps 757 mmHg 64%
    10:00 0°C° 0 mm 3 mps 757 mmHg 61%
    11:00 0°C° 0 mm 3 mps 757 mmHg 61%
    12:00 +1°C° 0 mm 3 mps 757 mmHg 60%
    13:00 +1°C° 0 mm 3 mps 757 mmHg 59%
    14:00 +1°C° 0.1 mm 3 mps 756 mmHg 62%
    15:00 0°C° 0.1 mm 3 mps 756 mmHg 65%
    16:00 0°C° 0.1 mm 3 mps 756 mmHg 68%
    17:00 0°C° 0.2 mm 3 mps 756 mmHg 72%
    18:00 -1°C° 0.2 mm 3 mps 756 mmHg 75%
    19:00 -1°C° 0.2 mm 3 mps 756 mmHg 78%
    20:00 -1°C° 0.4 mm 3 mps 756 mmHg 82%
    21:00 -1°C° 0.4 mm 3 mps 756 mmHg 85%
    22:00 -1°C° 0.4 mm 3 mps 756 mmHg 88%
    23:00 -1°C° 0.2 mm 3 mps 756 mmHg 88%

    Day after tomorrow, 16 December, Sunday

    Time Temperature Precipitation Wind Pressure Humidity
    00:00 -1°C° 0.2 mm 3 mps 756 mmHg 88%
    01:00 -1°C° 0.2 mm 2 mps 755 mmHg 87%
    02:00 -1°C° 0.2 mm 2 mps 755 mmHg 87%
    03:00 -1°C° 0.2 mm 2 mps 755 mmHg 87%
    04:00 -1°C° 0.2 mm 2 mps 755 mmHg 87%
    05:00 -1°C° 0.2 mm 2 mps 755 mmHg 87%
    06:00 +1°C° 0.2 mm 2 mps 755 mmHg 87%
    07:00 +1°C° 0.2 mm 2 mps 755 mmHg 88%
    08:00 +1°C° 0.1 mm 2 mps 755 mmHg 88%
    09:00 +1°C° 0.1 mm 2 mps 755 mmHg 89%
    10:00 +3°C° 0.1 mm 1 mps 755 mmHg 89%
    11:00 +3°C° 0.1 mm 1 mps 755 mmHg 90%
    12:00 +3°C° 0.1 mm 1 mps 755 mmHg 90%
    13:00 +4°C° 0.1 mm 1 mps 755 mmHg 91%
    14:00 +4°C° 0.2 mm 1 mps 755 mmHg 91%
    15:00 +3°C° 0.2 mm 1 mps 755 mmHg 91%
    16:00 +3°C° 0.2 mm 1 mps 755 mmHg 91%
    17:00 +3°C° 0.3 mm 1 mps 756 mmHg 92%
    18:00 +3°C° 0.3 mm 1 mps 756 mmHg 93%
    19:00 +3°C° 0.3 mm 1 mps 756 mmHg 94%
    20:00 +3°C° 0.4 mm 1 mps 756 mmHg 94%
    21:00 +3°C° 0.4 mm 1 mps 756 mmHg 95%
    22:00 +2°C° 0.4 mm 1 mps 757 mmHg 96%
    23:00 +2°C° 0.3 mm 1 mps 757 mmHg 96%

    17 December, Monday

    Time Temperature Precipitation Wind Pressure Humidity
    00:00 +2°C° 0.3 mm 1 mps 757 mmHg 96%
    01:00 +2°C° 0.3 mm 1 mps 757 mmHg 96%
    02:00 +2°C° 0.2 mm 1 mps 757 mmHg 96%
    03:00 +1°C° 0.2 mm 0 mps 756 mmHg 96%
    04:00 +1°C° 0.2 mm 0 mps 756 mmHg 96%
    05:00 +1°C° 0.2 mm 0 mps 756 mmHg 96%
    06:00 +1°C° 0.2 mm 0 mps 756 mmHg 96%
    07:00 +1°C° 0.2 mm 0 mps 756 mmHg 96%
    08:00 +1°C° 0.2 mm 0 mps 756 mmHg 97%
    09:00 +2°C° 0.2 mm 0 mps 756 mmHg 97%
    10:00 +2°C° 0.2 mm 0 mps 756 mmHg 98%
    11:00 +2°C° 0.3 mm 0 mps 756 mmHg 98%
    12:00 +3°C° 0.3 mm 1 mps 756 mmHg 98%
    13:00 +3°C° 0.3 mm 1 mps 756 mmHg 98%
    14:00 +3°C° 0.3 mm 1 mps 756 mmHg 98%
    15:00 +1°C° 0.3 mm 0 mps 756 mmHg 97%
    16:00 +1°C° 0.3 mm 0 mps 756 mmHg 97%
    17:00 +2°C° 0.3 mm 1 mps 757 mmHg 96%
    18:00 +2°C° 0.3 mm 1 mps 757 mmHg 96%
    19:00 +2°C° 0.3 mm 1 mps 757 mmHg 96%
    20:00 +2°C° 0.3 mm 1 mps 758 mmHg 96%
    21:00 +2°C° 0.3 mm 1 mps 758 mmHg 95%
    22:00 +2°C° 0.3 mm 1 mps 758 mmHg 95%
    23:00 +2°C° 0.2 mm 1 mps 759 mmHg 95%

    18 December, Tuesday

    Time Temperature Precipitation Wind Pressure Humidity
    00:00 +1°C° 0.2 mm 1 mps 759 mmHg 94%
    01:00 +1°C° 0.2 mm 1 mps 759 mmHg 94%
    02:00 +1°C° 0.1 mm 1 mps 759 mmHg 93%
    03:00 +1°C° 0.1 mm 1 mps 760 mmHg 93%
    04:00 -1°C° 0.1 mm 2 mps 760 mmHg 92%
    05:00 -1°C° 0.1 mm 2 mps 760 mmHg 92%
    06:00 -1°C° 0.1 mm 2 mps 760 mmHg 91%
    07:00 -2°C° 0.1 mm 2 mps 761 mmHg 91%
    08:00 -1°C° 0 mm 2 mps 761 mmHg 90%
    09:00 -1°C° 0 mm 2 mps 761 mmHg 90%
    10:00 +1°C° 0 mm 2 mps 762 mmHg 89%
    11:00 +1°C° 0 mm 2 mps 761 mmHg 90%
    12:00 +2°C° 0 mm 1 mps 761 mmHg 91%
    13:00 +3°C° 0 mm 1 mps 761 mmHg 93%
    14:00 +2°C° 0 mm 1 mps 761 mmHg 92%
    15:00 +1°C° 0 mm 1 mps 761 mmHg 91%
    16:00 0°C° 0 mm 1 mps 762 mmHg 90%
    17:00 0°C° 0 mm 1 mps 762 mmHg 90%
    18:00 0°C° 0 mm 1 mps 762 mmHg 90%
    19:00 -1°C° 0 mm 1 mps 762 mmHg 90%
    20:00 -1°C° 0 mm 1 mps 762 mmHg 90%
    21:00 -1°C° 0 mm 1 mps 762 mmHg 91%
    22:00 -1°C° 0 mm 1 mps 762 mmHg 91%
    23:00 -1°C° 0 mm 1 mps 762 mmHg 92%

    19 December, Wednesday

    Time Temperature Precipitation Wind Pressure Humidity
    00:00 -2°C° 0 mm 1 mps 762 mmHg 93%
    01:00 -2°C° 0 mm 1 mps 762 mmHg 94%
    02:00 -2°C° 0 mm 1 mps 762 mmHg 94%
    03:00 -2°C° 0 mm 1 mps 762 mmHg 95%
    04:00 -2°C° 0 mm 1 mps 762 mmHg 96%
    05:00 -2°C° 0 mm 1 mps 762 mmHg 96%
    06:00 -2°C° 0 mm 1 mps 762 mmHg 96%
    07:00 -2°C° 0 mm 1 mps 762 mmHg 96%
    08:00 -2°C° 0 mm 1 mps 762 mmHg 95%
    09:00 -1°C° 0 mm 1 mps 762 mmHg 93%
    10:00 -1°C° 0 mm 1 mps 762 mmHg 92%
    11:00 0°C° 0 mm 1 mps 761 mmHg 91%
    12:00 0°C° 0 mm 1 mps 761 mmHg 90%
    13:00 +1°C° 0 mm 1 mps 760 mmHg 90%
    14:00 0°C° 0 mm 1 mps 760 mmHg 91%
    15:00 0°C° 0 mm 1 mps 760 mmHg 91%
    16:00 -1°C° 0 mm 1 mps 760 mmHg 92%
    17:00 -1°C° 0 mm 1 mps 760 mmHg 92%
    18:00 -1°C° 0 mm 1 mps 760 mmHg 92%
    19:00 -2°C° 0 mm 1 mps 759 mmHg 91%
    20:00 -2°C° 0 mm 1 mps 759 mmHg 91%
    21:00 -4°C° 0 mm 2 mps 759 mmHg 91%
    22:00 -4°C° 0 mm 2 mps 759 mmHg 91%
    23:00 -4°C° 0 mm 2 mps 758 mmHg 90%
    Show more